Location: Korczew
(51.3586°N, 19.4491°E)
Time: 08:36:59
(UTC+00:00)

Cosmos 2173 Rocket - Pass Details

Date: 19 May 2025
Orbit: 944 x 999 km, 83.0° (Epoch: 16 June)

Event Time Altitude Azimuth Distance (km) Brightness Sun altitude
Rises 23:09:27 0° 348° (NNW) 3,732 8.4 -18.3°
Reaches altitude 10° 23:12:00 10° 348° (NNW) 2,775 7.4 -18.3°
Maximum altitude 23:18:22 76° 264° (W) 1,024 4.0 -18.1°
Enters shadow 23:21:47 29° 184° (S) 1,722 4.7 -18.0°
